Retour au catalogue

STARLINK-32727

ActifCommunicationsVLEO
NORAD 62828·PAYLOAD·🇺🇸 United States

Lancé Jan 24, 2025 depuis Vandenberg Space Force Base

Loading…

Prochains Passages (prochaines 24 heures)

TLE

FraisSource: CelesTrak SupGP

Époque: Sep 15, 2026, 02:17 UTC

1 62828C 25018Y   26258.09562500 -.00005143  00000+0 -15203-3 0  2588
2 62828  53.1574 142.8630 0001256  81.9769 342.9744 15.34380127    19

Suivez STARLINK-32727 en temps réel avec AllMySat

Download on the App Store